Date String (YYYY-MM-DD hh:mm:ss) UTC,Instrument flags,absolute air pressure of the measurement (hPa),sample flow rate (lpm),inlet stack bypass flow (lpm),air temperature of the measurement (°C),ambient temperature measured by the external sensor (°C),aerosol sample conditioner tube jacket temperature (°C),OPC LED temperature (°C),internal box temperature (°C),relative humidity of the measurement (%),span deviation,mass concentration of particles derived from Lorenz-Mie calculation of OPC scattering (μg/m³),mass concentration of particles derived from Lorenz-Mie calculation of OPC scattering (μg/m³),mass concentration of particles derived from Lorenz-Mie calculation of OPC scattering (μg/m³)
DateTimeUTC,F1_M11,P_M11,Q1_M11,Q2_M11,T1_M11,T2_M11,T3_M11,T4_M11,T5_M11,U1_M11,ZSPAN_M11,X0_M11,X2_M11,X1_M11
2023-08-26 20:00:00,SystemResetWarning,0838.3,4.99,000.00,030.2,026.4,000.0,037.8,030.5,34.1,-000.2,0011.28,0007.11,0006.78
2023-08-26 20:01:00,SystemResetWarning,0838.2,5.00,000.00,030.2,024.8,000.0,037.7,030.2,32.9,0000.0,0011.21,0007.00,0006.66
2023-08-26 20:02:00,SystemResetWarning,0838.2,5.00,000.00,030.1,024.3,000.0,037.7,030.0,32.9,0000.2,0011.65,0006.92,0006.56
2023-08-26 20:03:00,SystemResetWarning,0838.1,5.01,000.00,029.9,024.4,000.0,037.7,029.9,33.1,0000.2,0012.03,0006.83,0006.46
2023-08-26 20:04:00,SystemResetWarning,0838.2,5.01,000.00,029.8,024.8,000.0,037.8,029.9,33.6,0000.1,0012.04,0006.73,0006.34
2023-08-26 20:05:00,SystemResetWarning,0838.2,5.00,000.00,029.7,025.3,000.0,037.8,030.0,33.7,0000.5,0011.54,0006.64,0006.25
2023-08-26 20:06:00,SystemResetWarning,0838.2,5.00,000.00,029.7,025.7,000.0,037.8,030.1,33.6,0000.5,0011.01,0006.53,0006.13
2023-08-26 20:07:00,SystemResetWarning,0838.2,5.00,000.00,029.7,026.1,000.0,037.9,030.2,33.8,0000.8,0010.73,0006.41,0006.03
2023-08-26 20:08:00,SystemResetWarning,0838.2,5.01,000.00,029.7,026.4,000.0,037.9,030.2,33.7,0000.6,0010.64,0006.31,0005.95
2023-08-26 20:09:00,SystemResetWarning,0838.2,4.99,000.00,029.7,026.7,000.0,037.9,030.3,33.6,0000.5,0010.48,0006.33,0005.96
2023-08-26 20:10:00,SystemResetWarning,0838.2,5.00,000.00,029.7,026.9,000.0,037.9,030.4,34.2,0000.6,0010.50,0006.38,0005.97
2023-08-26 20:11:00,SystemResetWarning,0838.2,5.00,000.00,029.7,027.1,000.0,037.9,030.4,33.9,0000.1,0010.52,0006.38,0005.98
2023-08-26 20:12:00,SystemResetWarning,0838.2,4.99,000.00,029.7,027.3,000.0,037.9,030.5,34.5,0000.3,0010.52,0006.38,0005.99
2023-08-26 20:13:00,SystemResetWarning,0838.1,5.01,000.00,029.7,026.8,000.0,037.9,030.5,34.2,-000.2,0010.17,0006.36,0006.00
2023-08-26 20:14:00,SystemResetWarning,0838.2,5.00,000.00,029.7,025.2,000.0,037.7,030.2,33.8,-000.8,0009.47,0006.33,0006.00
2023-08-26 20:15:00,SystemResetWarning,0838.1,4.99,000.00,029.6,024.3,000.0,037.6,030.0,33.7,-001.2,0009.25,0006.33,0006.02
2023-08-26 20:16:00,SystemResetWarning,0838.1,5.02,000.00,029.5,024.3,000.0,037.6,029.8,34.2,-001.8,0009.17,0006.33,0006.05
2023-08-26 20:17:00,SystemResetWarning,0838.0,5.00,000.00,029.4,024.7,000.0,037.6,029.7,34.5,-001.7,0009.08,0006.35,0006.07
2023-08-26 20:18:00,SystemResetWarning,0838.0,4.98,000.00,029.3,025.1,000.0,037.6,029.8,34.5,-001.8,0009.19,0006.41,0006.10
2023-08-26 20:19:00,SystemResetWarning,0838.0,5.01,000.00,029.3,025.6,000.0,037.6,030.0,34.8,-001.9,0009.25,0006.44,0006.12
2023-08-26 20:20:00,SystemResetWarning,0838.0,5.00,000.00,029.3,026.0,000.0,037.6,030.1,34.9,-001.9,0009.28,0006.45,0006.12
2023-08-26 20:21:00,SystemResetWarning,0838.0,5.01,000.00,029.4,026.3,000.0,037.6,030.2,34.8,-001.9,0009.23,0006.43,0006.12
2023-08-26 20:22:00,SystemResetWarning,0838.0,4.99,000.00,029.4,026.6,000.0,037.6,030.3,34.5,-002.1,0009.24,0006.45,0006.15
2023-08-26 20:23:00,SystemResetWarning,0838.0,4.99,000.00,029.5,026.8,000.0,037.7,030.3,34.6,-002.5,0009.34,0006.47,0006.17
2023-08-26 20:24:00,SystemResetWarning,0837.9,5.01,000.00,029.5,027.1,000.0,037.7,030.4,34.5,-002.1,0009.78,0006.59,0006.26
2023-08-26 20:25:00,SystemResetWarning,0838.0,5.01,000.00,029.5,027.2,000.0,037.7,030.4,34.2,-002.1,0010.28,0006.70,0006.36
2023-08-26 20:26:00,SystemResetWarning,0837.9,5.01,000.00,029.6,027.2,000.0,037.7,030.5,34.5,-002.0,0010.39,0006.79,0006.43
2023-08-26 20:27:00,SystemResetWarning,0838.0,4.98,000.00,029.6,025.8,000.0,037.6,030.3,34.3,-001.9,0010.44,0006.87,0006.48
2023-08-26 20:28:00,SystemResetWarning,0838.0,5.01,000.00,029.5,024.5,000.0,037.4,030.0,34.3,-001.5,0010.42,0006.89,0006.53
2023-08-26 20:29:00,SystemResetWarning,0837.9,5.01,000.00,029.4,024.3,000.0,037.4,029.9,34.5,-001.1,0010.38,0006.93,0006.58
2023-08-26 20:30:00,SystemResetWarning,0837.9,4.99,000.00,029.2,024.6,000.0,037.4,029.8,34.9,-000.4,0010.70,0006.98,0006.63
2023-08-26 20:31:00,SystemResetWarning,0837.8,4.99,000.00,029.2,025.0,000.0,037.5,029.8,35.6,-000.4,0010.79,0007.06,0006.70
2023-08-26 20:32:00,SystemResetWarning,0837.8,5.03,000.00,029.4,025.5,000.0,037.5,030.1,35.0,-000.3,0010.84,0007.13,0006.77
2023-08-26 20:33:00,SystemResetWarning,0837.9,4.96,000.00,029.6,025.9,000.0,037.5,030.2,34.2,-000.3,0011.32,0007.20,0006.83
2023-08-26 20:34:00,SystemResetWarning,0837.8,5.03,000.00,029.8,026.2,000.0,037.5,030.3,34.4,0000.1,0011.76,0007.26,0006.88
2023-08-26 20:35:00,SystemResetWarning,0837.8,4.99,000.00,029.9,026.5,000.0,037.6,030.4,33.4,0000.4,0011.37,0007.20,0006.87
2023-08-26 20:36:00,SystemResetWarning,0837.8,5.00,000.00,029.9,026.8,000.0,037.7,030.4,33.7,0001.0,0010.99,0007.15,0006.81
2023-08-26 20:37:00,SystemResetWarning,0837.8,5.00,000.00,030.0,027.0,000.0,037.7,030.5,32.9,0001.4,0010.84,0007.09,0006.76
2023-08-26 20:38:00,SystemResetWarning,0837.8,5.00,000.00,030.0,027.2,000.0,037.8,030.5,32.8,0001.2,0010.76,0007.03,0006.71
2023-08-26 20:39:00,SystemResetWarning,0837.8,4.99,000.00,030.0,026.1,000.0,037.7,030.4,32.6,0000.6,0010.77,0007.02,0006.69
2023-08-26 20:40:00,SystemResetWarning,0837.8,5.00,000.00,030.0,024.7,000.0,037.6,030.1,32.8,0000.2,0010.79,0007.00,0006.66
2023-08-26 20:41:00,SystemResetWarning,0837.7,5.01,000.00,029.9,024.3,000.0,037.6,030.0,33.5,-000.8,0010.58,0006.99,0006.65
2023-08-26 20:42:00,SystemResetWarning,0837.8,5.02,000.00,029.8,024.5,000.0,037.6,029.8,33.5,-001.0,0010.48,0006.95,0006.62
2023-08-26 20:43:00,SystemResetWarning,0837.8,5.00,000.00,029.6,024.9,000.0,037.7,029.8,33.5,-001.4,0010.47,0006.91,0006.59
2023-08-26 20:44:00,SystemResetWarning,0837.8,4.99,000.00,029.6,025.4,000.0,037.7,030.0,33.8,-001.1,0010.22,0006.89,0006.57
2023-08-26 20:45:00,SystemResetWarning,0837.8,5.00,000.00,029.6,025.8,000.0,037.7,030.0,34.3,-001.2,0009.85,0006.87,0006.55
2023-08-26 20:46:00,SystemResetWarning,0837.8,5.00,000.00,029.5,026.1,000.0,037.7,030.1,34.1,-001.4,0009.77,0006.89,0006.57
2023-08-26 20:47:00,SystemResetWarning,0837.8,5.00,000.00,029.5,026.4,000.0,037.8,030.2,34.4,-001.5,0009.74,0006.88,0006.58
2023-08-26 20:48:00,SystemResetWarning,0837.7,4.99,000.00,029.6,026.7,000.0,037.8,030.3,34.9,-001.5,0009.84,0006.92,0006.61
2023-08-26 20:49:00,SystemResetWarning,0837.8,5.02,000.00,029.6,027.0,000.0,037.8,030.4,34.6,-001.5,0009.84,0006.94,0006.64
2023-08-26 20:50:00,SystemResetWarning,0837.8,4.99,000.00,029.7,026.9,000.0,037.8,030.5,34.0,-001.6,0009.85,0006.94,0006.65
2023-08-26 20:51:00,SystemResetWarning,0837.8,4.97,000.00,029.8,025.6,000.0,037.6,030.2,34.7,-001.6,0009.84,0006.94,0006.65
2023-08-26 20:52:00,SystemResetWarning,0837.7,5.05,000.00,029.7,024.3,000.0,037.5,029.9,34.9,-001.4,0009.86,0006.93,0006.64
2023-08-26 20:53:00,SystemResetWarning,0837.8,4.96,000.00,029.7,024.2,000.0,037.5,029.8,34.4,-001.4,0009.86,0006.93,0006.64
2023-08-26 20:54:00,SystemResetWarning,0837.7,5.02,000.00,029.6,024.5,000.0,037.5,029.7,34.3,-001.1,0009.83,0006.92,0006.63
2023-08-26 20:55:00,SystemResetWarning,0837.7,5.00,000.00,029.6,024.9,000.0,037.6,029.8,34.5,-001.1,0009.70,0006.90,0006.62
2023-08-26 20:56:00,SystemResetWarning,0837.7,4.99,000.00,029.6,025.4,000.0,037.6,029.9,34.5,-001.2,0009.63,0006.90,0006.63
2023-08-26 20:57:00,SystemResetWarning,0837.7,5.01,000.00,029.6,025.8,000.0,037.6,030.0,34.4,-001.1,0009.66,0006.88,0006.60
2023-08-26 20:58:00,SystemResetWarning,0837.7,5.00,000.00,029.6,026.1,000.0,037.7,030.1,34.8,-001.0,0009.74,0006.88,0006.56
2023-08-26 20:59:00,SystemResetWarning,0837.7,5.02,000.00,029.6,026.5,000.0,037.7,030.2,34.3,-001.1,0009.66,0006.85,0006.53
